User: anonymous   Login
Location: Unspecified
(0.0000°N, 0.0000°E)
Time: 00:55:48
(UTC+00:00)
Language:

Geos 2 (Explorer 36) - Orbit

View from above orbital plane
View from above orbital plane
View from above satellite
View from above satellite

Ground track
Ground track

The orbit data is extracted from the following two-line orbital elements,

1  3093U 68002A   17324.59990668 -.00000057 +00000-0 +59448-4 0  9997
2  3093 105.8038 352.9481 0318590 146.8988 329.3529 12.83530481335676
Epoch (UTC): 20 November 2017 14:23:51
Eccentricity: 0.0318590
inclination: 105.8038°
perigee height: 1082 km
apogee height: 1573 km
right ascension of ascending node: 352.9481°
argument of perigee: 146.8988°
revolutions per day: 12.83530481
mean anomaly at epoch: 329.3529°
orbit number at epoch: 33567

The dashed part of the orbit path shows where the satellite is in the earth's shadow,  

DLR